Location: Godiavel Galaoual
(15.2485°N, 12.6604°W)
Time: 00:48:19
(UTC+00:00)

Explorer 7 - Pass Details

Date: 15 June 2021
Orbit: 484 x 676 km, 50.3° (Epoch: 29 July)

Event Time Altitude Azimuth Distance (km) Brightness Sun altitude
Rises 06:18:47 0° 347° (NNW) 2,730 10.5 -1.2°
Reaches altitude 10° 06:22:18 10° 17° (NNE) 1,785 10.1 -0.4°
Maximum altitude 06:24:02 12° 43° (NE) 1,614 10.6 0.0°
Drops below altitude 10° 06:25:44 10° 69° (ENE) 1,741 11.8 0.3°
Sets 06:29:03 0° 100° (E) 2,588 11.3 1.1°
